Погода в Хваре

Хорватия     43°10′08″N   16°26′55″E
темп.,
°C
ветер,
м/с
пор.,
м/с
влажн.,
%
обл.,
%
осадки,
мм/ч
давл.,
гПа
погр.,
м
8 мая, сб
сб823:00+16св447699 0.0 101351
02:00+16св3472100 0.0 101351
05:00+14св7106176 0.0 1014303
08:00+14св5656100 0.0 1016271
11:00+17ссв125152 0.0 1017245
14:00+18зсз445265 0.0 1018482
17:00+18зсз666196 0.0 1018295
20:00+16сз567299 0.0 1018110
9 мая, вс
вс923:00+16зсз34715 0.0 102087
02:00+15с236512 0.0 102038
05:00+15ссв11615 0.0 101916
08:00+17всв11585 0.0 102048
11:00+19з11500 0.0 1020260
14:00+19зюз22510 0.0 1020386
17:00+19зсз11530 0.0 1019265
20:00+17вюв22630 0.0 101920
10 мая, пн
пн1023:00+16в34605 0.0 102042
02:00+16вюв336153 0.0 102025
05:00+16в455741 0.0 101983
08:00+17вюв575586 0.0 1019173
11:00+18вюв68614 0.0 1019357
14:00+19юв57641 0.0 1019375
17:00+19вюв56680 0.0 1018268
20:00+17в55770 0.0 101771
11 мая, вт
вт1123:00+17в45765 0.0 101758
02:00+17в56783 0.0 101680
05:00+16в5878100 0.0 1015135
08:00+18вюв710755 0.0 1015297
11:00+19вюв811735 0.0 1014405
14:00+19вюв813720 0.0 1013439
17:00+19вюв813720 0.0 1011372
20:00+18вюв10177595 0.0 1009383
12 мая, ср
ср1223:00+18вюв12177924 0.0 1008411
02:00+17юв111488100 0.1 1007442
05:00+16з678478 4.6 1006497
08:00+14зсз347259 5.0 1007322
11:00+16ю346267 0.0 1009641
14:00+17з135824 0.1 1009717
17:00+17ююв225773 0.0 1008570
20:00+16вюв346699 0.0 1008263